| time (UTC) | temp F | wind direction | speed MPH | gust MPH | rain 1hr in | rain 24hr in | rain mn in | humidity % | barometer mb |
| 20260904110018 | 69 | 68 | 1.0 | 5.0 | 0.02 | 0.46 | 0.12 | 81 | 1011.8 |
| 20260904105018 | 69 | 0.0 | 2.0 | 0.02 | 0.46 | 0.12 | 81 | 1011.6 | |
| 20260904104018 | 69 | 0.0 | 1.0 | 0.03 | 0.46 | 0.12 | 81 | 1011.8 | |
| 20260904103018 | 69 | 0.0 | 1.0 | 0.03 | 0.46 | 0.12 | 81 | 1011.9 | |
| 20260904102027 | 69 | 0.0 | 1.0 | 0.03 | 0.46 | 0.12 | 81 | 1011.6 | |
| 20260904101019 | 69 | 0.0 | 0.0 | 0.02 | 0.45 | 0.11 | 81 | 1011.9 | |
| 20260904100036 | 69 | 0.0 | 1.0 | 0.01 | 0.44 | 0.10 | 81 | 1011.8 | |
| 20260904095018 | 69 | 0.0 | 0.0 | 0.04 | 0.44 | 0.10 | 81 | 1012.2 | |
| 20260904094038 | 69 | 0.0 | 0.0 | 0.04 | 0.43 | 0.09 | 81 | 1012.1 | |
| 20260904093018 | 69 | 0.0 | 0.0 | 0.05 | 0.43 | 0.09 | 81 | 1012.1 | |
| 20260904092035 | 69 | 0.0 | 0.0 | 0.09 | 0.43 | 0.09 | 81 | 1011.7 | |
| 20260904091027 | 69 | 0.0 | 1.0 | 0.09 | 0.43 | 0.09 | 81 | 1011.5 | |
| 20260904090020 | 69 | 0.0 | 1.0 | 0.09 | 0.43 | 0.09 | 82 | 1011.6 | |
| 20260904085018 | 70 | 0.0 | 1.0 | 0.06 | 0.40 | 0.06 | 82 | 1011.6 | |
| 20260904084039 | 70 | 0.0 | 2.0 | 0.05 | 0.39 | 0.05 | 83 | 1011.6 | |
| 20260904083019 | 70 | 0.0 | 1.0 | 0.04 | 0.38 | 0.04 | 84 | 1011.6 | |
| 20260904082038 | 70 | 0.0 | 1.0 | 0.00 | 0.34 | 0.00 | 85 | 1011.7 | |
| 20260904081018 | 70 | 0.0 | 1.0 | 0.00 | 0.34 | 0.00 | 85 | 1011.5 | |
| 20260904080026 | 70 | 0.0 | 1.0 | 0.00 | 0.34 | 0.00 | 85 | 1011.6 | |
| 20260904075018 | 70 | 0.0 | 0.0 | 0.00 | 0.34 | 0.00 | 85 | 1011.8 | |
| 20260904074038 | 70 | 0.0 | 0.0 | 0.00 | 0.34 | 0.00 | 85 | 1011.8 | |
| 20260904073038 | 70 | 0.0 | 1.0 | 0.00 | 0.34 | 0.00 | 85 | 1011.8 | |
| 20260904072018 | 70 | 0.0 | 0.0 | 0.00 | 0.34 | 0.00 | 86 | 1011.9 | |
| 20260904071029 | 70 | 0.0 | 1.0 | 0.00 | 0.34 | 0.00 | 87 | 1011.9 | |
| 20260904070038 | 71 | 0.0 | 3.0 | 0.00 | 0.34 | 0.00 | 87 | 1012.0 | |
| 20260904065035 | 71 | 0.0 | 1.0 | 0.00 | 0.34 | 0.00 | 87 | 1012.3 | |
| 20260904064020 | 72 | 0.0 | 3.0 | 0.00 | 0.34 | 0.00 | 87 | 1012.4 | |
| 20260904063039 | 72 | 0.0 | 2.0 | 0.00 | 0.34 | 0.00 | 87 | 1011.8 | |
| 20260904062020 | 72 | 68 | 1.0 | 4.0 | 0.00 | 0.34 | 0.00 | 84 | 1011.5 |
| 20260904061049 | 71 | 68 | 2.0 | 9.0 | 0.00 | 0.34 | 0.00 | 81 | 1011.3 |
| 20260904060027 | 71 | 0.0 | 1.0 | 0.00 | 0.34 | 0.00 | 81 | 1012.2 | |
| 20260904055020 | 71 | 0.0 | 0.0 | 0.00 | 0.34 | 0.00 | 81 | 1011.8 | |
| 20260904054019 | 71 | 0.0 | 1.0 | 0.00 | 0.34 | 0.00 | 81 | 1011.6 | |
| 20260904053045 | 70 | 0.0 | 0.0 | 0.00 | 0.34 | 0.00 | 81 | 1011.7 | |
| 20260904052036 | 70 | 0.0 | 2.0 | 0.00 | 0.34 | 0.00 | 81 | 1011.0 | |
| 20260904051018 | 70 | 0.0 | 1.0 | 0.00 | 0.34 | 0.00 | 81 | 1010.6 | |
| 20260904050029 | 70 | 0.0 | 1.0 | 0.00 | 0.34 | 0.34 | 82 | 1010.6 | |
| 20260904045049 | 70 | 0.0 | 1.0 | 0.00 | 0.34 | 0.34 | 82 | 1010.8 | |
| 20260904044020 | 71 | 0.0 | 1.0 | 0.00 | 0.34 | 0.34 | 82 | 1011.4 | |
| 20260904043038 | 71 | 0.0 | 0.0 | 0.00 | 0.34 | 0.34 | 81 | 1011.8 | |
| 20260904042020 | 71 | 0.0 | 0.0 | 0.00 | 0.34 | 0.34 | 81 | 1012.0 | |
| 20260904041046 | 72 | 0.0 | 0.0 | 0.00 | 0.34 | 0.34 | 81 | 1012.5 | |
| 20260904040020 | 72 | 0.0 | 0.0 | 0.00 | 0.34 | 0.34 | 81 | 1012.8 | |
| 20260904035040 | 72 | 0.0 | 0.0 | 0.00 | 0.34 | 0.34 | 81 | 1012.8 | |
| 20260904034020 | 72 | 0.0 | 1.0 | 0.00 | 0.34 | 0.34 | 81 | 1012.8 | |
| 20260904033028 | 72 | 0.0 | 0.0 | 0.00 | 0.34 | 0.34 | 81 | 1012.8 | |
| 20260904032020 | 72 | 0.0 | 0.0 | 0.00 | 0.34 | 0.34 | 81 | 1012.8 | |
| 20260904031039 | 72 | 0.0 | 1.0 | 0.00 | 0.34 | 0.34 | 81 | 1012.7 | |
| 20260904030028 | 72 | 0.0 | 1.0 | 0.00 | 0.34 | 0.34 | 81 | 1012.7 | |
| 20260904025037 | 72 | 0.0 | 1.0 | 0.00 | 0.34 | 0.34 | 81 | 1012.6 | |
| 20260904024019 | 72 | 0.0 | 1.0 | 0.00 | 0.34 | 0.34 | 81 | 1012.7 | |
| 20260904023049 | 73 | 0.0 | 1.0 | 0.00 | 0.34 | 0.34 | 81 | 1012.9 | |
| 20260904022037 | 73 | 0.0 | 1.0 | 0.28 | 0.34 | 0.34 | 82 | 1012.8 | |
| 20260904021020 | 73 | 0.0 | 1.0 | 0.30 | 0.34 | 0.34 | 83 | 1013.0 | |
| 20260904020019 | 73 | 0.0 | 1.0 | 0.30 | 0.34 | 0.34 | 83 | 1013.2 | |
| 20260904015020 | 73 | 0.0 | 2.0 | 0.30 | 0.34 | 0.34 | 84 | 1013.5 | |
| 20260904014029 | 74 | 0.0 | 1.0 | 0.30 | 0.34 | 0.34 | 84 | 1014.1 | |
| 20260904013020 | 74 | 0.0 | 2.0 | 0.30 | 0.34 | 0.34 | 85 | 1015.1 | |
| 20260904012037 | 75 | 0.0 | 2.0 | 0.02 | 0.06 | 0.06 | 88 | 1015.3 | |
| 20260904011020 | 75 | 0.0 | 0.0 | 0.00 | 0.04 | 0.04 | 89 | 1013.5 | |
| 20260904010045 | 76 | 0.0 | 0.0 | 0.00 | 0.04 | 0.04 | 88 | 1012.9 | |
| 20260904005036 | 76 | 0.0 | 0.0 | 0.00 | 0.04 | 0.04 | 88 | 1012.7 | |
| 20260904004046 | 76 | 0.0 | 0.0 | 0.00 | 0.04 | 0.04 | 88 | 1012.4 | |
| 20260904003039 | 76 | 0.0 | 0.0 | 0.00 | 0.04 | 0.04 | 88 | 1012.2 | |
| 20260904002028 | 76 | 0.0 | 0.0 | 0.00 | 0.04 | 0.04 | 88 | 1012.2 | |
| 20260904001029 | 77 | 0.0 | 0.0 | 0.00 | 0.04 | 0.04 | 88 | 1012.6 | |
| 20260904000020 | 77 | 0.0 | 0.0 | 0.00 | 0.04 | 0.04 | 87 | 1012.7 | |
| 20260903235020 | 78 | 0.0 | 0.0 | 0.00 | 0.04 | 0.04 | 86 | 1012.9 | |
| 20260903234159 | 79 | 0.0 | 0.0 | 0.00 | 0.04 | 0.04 | 85 | 1013.0 | |
| 20260903233036 | 79 | 0.0 | 0.0 | 0.00 | 0.04 | 0.04 | 84 | 1012.8 | |
| 20260903232020 | 80 | 0.0 | 0.0 | 0.00 | 0.04 | 0.04 | 82 | 1012.9 | |
| 20260903231037 | 80 | 0.0 | 0.0 | 0.00 | 0.04 | 0.04 | 80 | 1012.8 | |
| 20260903230049 | 80 | 0.0 | 1.0 | 0.00 | 0.04 | 0.04 | 80 | 1012.8 | |
| 20260903225028 | 81 | 0.0 | 0.0 | 0.00 | 0.04 | 0.04 | 79 | 1012.7 | |
| 20260903224037 | 81 | 0.0 | 0.0 | 0.00 | 0.04 | 0.04 | 79 | 1012.6 | |
| 20260903223020 | 81 | 0.0 | 0.0 | 0.00 | 0.04 | 0.04 | 79 | 1012.5 | |
| 20260903222019 | 81 | 0.0 | 1.0 | 0.00 | 0.04 | 0.04 | 78 | 1012.3 | |
| 20260903221028 | 81 | 0.0 | 2.0 | 0.00 | 0.04 | 0.04 | 78 | 1012.0 | |
| 20260903220028 | 81 | 0.0 | 3.0 | 0.00 | 0.04 | 0.04 | 78 | 1011.9 | |
| 20260903215306 | 80 | 0.0 | 3.0 | 0.00 | 0.04 | 0.04 | 78 | 1011.9 | |
| 20260903214120 | 80 | 0.0 | 4.0 | 0.00 | 0.04 | 0.04 | 76 | 1011.9 | |
| 20260903213013 | 81 | 0.0 | 1.0 | 0.00 | 0.04 | 0.04 | 76 | 1011.9 | |
| 20260903212039 | 81 | 0.0 | 4.0 | 0.00 | 0.04 | 0.04 | 76 | 1012.3 | |
| 20260903211020 | 81 | 0.0 | 1.0 | 0.00 | 0.04 | 0.04 | 75 | 1012.4 | |
| 20260903210019 | 80 | 0.0 | 0.0 | 0.00 | 0.04 | 0.04 | 76 | 1012.8 | |
| 20260903205019 | 80 | 0.0 | 0.0 | 0.00 | 0.04 | 0.04 | 78 | 1012.8 | |
| 20260903204045 | 79 | 0.0 | 0.0 | 0.00 | 0.04 | 0.04 | 81 | 1012.7 | |
| 20260903203019 | 79 | 0.0 | 0.0 | 0.00 | 0.04 | 0.04 | 84 | 1012.7 | |
| 20260903202039 | 80 | 0.0 | 0.0 | 0.00 | 0.04 | 0.04 | 81 | 1012.6 | |
| 20260903201048 | 80 | 0.0 | 0.0 | 0.00 | 0.04 | 0.04 | 79 | 1012.8 | |
| 20260903200019 | 81 | 0.0 | 0.0 | 0.00 | 0.04 | 0.04 | 74 | 1012.8 | |
| 20260903195040 | 81 | 0.0 | 0.0 | 0.00 | 0.04 | 0.04 | 75 | 1012.8 | |
| 20260903194045 | 81 | 0.0 | 0.0 | 0.00 | 0.04 | 0.04 | 75 | 1012.4 | |
| 20260903193019 | 81 | 0.0 | 3.0 | 0.00 | 0.04 | 0.04 | 76 | 1012.6 | |
| 20260903192019 | 80 | 0.0 | 0.0 | 0.00 | 0.04 | 0.04 | 77 | 1012.8 | |
| 20260903191028 | 81 | 0.0 | 0.0 | 0.00 | 0.04 | 0.04 | 76 | 1013.0 | |
| 20260903190045 | 82 | 0.0 | 0.0 | 0.00 | 0.04 | 0.04 | 73 | 1013.3 | |
| 20260903185019 | 81 | 0.0 | 0.0 | 0.00 | 0.04 | 0.04 | 73 | 1013.0 | |
| 20260903184027 | 81 | 0.0 | 2.0 | 0.00 | 0.04 | 0.04 | 73 | 1013.1 | |
| 20260903183019 | 81 | 0.0 | 1.0 | 0.00 | 0.04 | 0.04 | 78 | 1013.3 | |
| 20260903182037 | 81 | 0.0 | 1.0 | 0.00 | 0.04 | 0.04 | 78 | 1013.3 | |
| 20260903181019 | 79 | 0.0 | 1.0 | 0.00 | 0.04 | 0.04 | 81 | 1013.0 | |
| 20260903180027 | 78 | 0.0 | 3.0 | 0.00 | 0.04 | 0.04 | 83 | 1012.7 | |
| 20260903175040 | 77 | 0.0 | 0.0 | 0.00 | 0.04 | 0.04 | 86 | 1013.1 | |
| 20260903174120 | 76 | 0.0 | 0.0 | 0.00 | 0.04 | 0.04 | 86 | 1013.3 | |
| 20260903173019 | 76 | 0.0 | 1.0 | 0.00 | 0.04 | 0.04 | 87 | 1013.2 | |
| 20260903172019 | 75 | 0.0 | 0.0 | 0.00 | 0.04 | 0.04 | 88 | 1013.5 | |
| 20260903171019 | 75 | 0.0 | 1.0 | 0.00 | 0.04 | 0.04 | 88 | 1013.1 | |
| 20260903170020 | 75 | 0.0 | 1.0 | 0.00 | 0.04 | 0.04 | 88 | 1013.9 | |
| 20260903165019 | 75 | 0.0 | 0.0 | 0.00 | 0.04 | 0.04 | 88 | 1013.3 | |
| 20260903164047 | 75 | 0.0 | 0.0 | 0.00 | 0.04 | 0.04 | 89 | 1012.2 | |
| 20260903163019 | 75 | 0.0 | 1.0 | 0.00 | 0.04 | 0.04 | 88 | 1013.0 | |
| 20260903162019 | 75 | 0.0 | 0.0 | 0.00 | 0.04 | 0.04 | 88 | 1013.1 | |
| 20260903161019 | 74 | 0.0 | 1.0 | 0.00 | 0.04 | 0.04 | 88 | 1012.5 | |
| 20260903160019 | 74 | 0.0 | 0.0 | 0.00 | 0.04 | 0.04 | 85 | 1013.4 | |
| 20260903155019 | 73 | 0.0 | 1.0 | 0.00 | 0.04 | 0.04 | 86 | 1012.5 | |
| 20260903154157 | 73 | 0.0 | 1.0 | 0.00 | 0.04 | 0.04 | 84 | 1012.3 | |
| 20260903153018 | 72 | 0.0 | 0.0 | 0.01 | 0.04 | 0.04 | 83 | 1012.9 | |
| 20260903152019 | 72 | 0.0 | 0.0 | 0.01 | 0.04 | 0.04 | 82 | 1013.4 | |
| 20260903151039 | 72 | 0.0 | 1.0 | 0.01 | 0.04 | 0.04 | 82 | 1013.6 | |
| 20260903150019 | 71 | 0.0 | 1.0 | 0.01 | 0.04 | 0.04 | 80 | 1013.8 | |
| 20260903145019 | 71 | 0.0 | 0.0 | 0.01 | 0.04 | 0.04 | 80 | 1013.9 | |
| 20260903144019 | 70 | 0.0 | 0.0 | 0.01 | 0.04 | 0.04 | 81 | 1014.0 | |
| 20260903143039 | 70 | 0.0 | 0.0 | 0.00 | 0.03 | 0.03 | 80 | 1013.7 | |
| 20260903142028 | 69 | 0.0 | 0.0 | 0.01 | 0.03 | 0.03 | 80 | 1013.4 | |
| 20260903141036 | 69 | 0.0 | 0.0 | 0.03 | 0.03 | 0.03 | 81 | 1013.5 | |
| 20260903140019 | 69 | 0.0 | 1.0 | 0.03 | 0.03 | 0.03 | 81 | 1013.8 | |
| 20260903135019 | 70 | 0.0 | 1.0 | 0.03 | 0.03 | 0.03 | 81 | 1013.6 | |
| 20260903134028 | 70 | 0.0 | 2.0 | 0.03 | 0.03 | 0.03 | 81 | 1013.6 | |
| 20260903133036 | 70 | 0.0 | 0.0 | 0.03 | 0.03 | 0.03 | 81 | 1013.7 | |
| 20260903132028 | 70 | 0.0 | 0.0 | 0.02 | 0.02 | 0.02 | 81 | 1013.3 | |
| 20260903131018 | 70 | 0.0 | 0.0 | 0.00 | 0.00 | 0.00 | 81 | 1013.3 | |
| 20260903130019 | 69 | 0.0 | 0.0 | 0.00 | 0.00 | 0.00 | 82 | 1013.2 | |
| 20260903125047 | 69 | 0.0 | 0.0 | 0.00 | 0.01 | 0.00 | 81 | 1013.1 | |
| 20260903124018 | 69 | 0.0 | 0.0 | 0.00 | 0.04 | 0.00 | 81 | 1013.0 | |
| 20260903123019 | 69 | 0.0 | 0.0 | 0.00 | 0.07 | 0.00 | 81 | 1013.0 | |
| 20260903122036 | 69 | 0.0 | 0.0 | 0.00 | 0.08 | 0.00 | 81 | 1012.7 | |
| 20260903121027 | 68 | 0.0 | 0.0 | 0.00 | 0.09 | 0.00 | 81 | 1012.6 | |
| 20260903120019 | 68 | 0.0 | 0.0 | 0.00 | 0.11 | 0.00 | 82 | 1012.4 | |
| 20260903115038 | 68 | 0.0 | 0.0 | 0.00 | 0.12 | 0.00 | 82 | 1012.3 | |
| 20260903114019 | 68 | 0.0 | 0.0 | 0.00 | 0.12 | 0.00 | 82 | 1012.4 | |
| 20260903113130 | 68 | 0.0 | 0.0 | 0.00 | 0.12 | 0.00 | 81 | 1012.2 | |
| 20260903112536 | 68 | 0.0 | 0.0 | 0.00 | 0.12 | 0.00 | 81 | 1012.2 | |
| 20260903111536 | 68 | 0.0 | 0.0 | 0.00 | 0.13 | 0.00 | 81 | 1012.3 |